Regional Weather Roundup
Issued by NWS

Home | Current Version | Previous Version | Graphics & Text | Print | Product List | Glossary On
Versions: 1 2 3 4 5 6 7 8 9 10 11 12 13 14 15 16 17 18 19 20 21 22 23 24 25 26 27 28 29 30 31 32 33 34 35 36 37 38 39 40 41 42 43 44 45 46 47 48 49 50
513
ASUS45 KBOU 311807
RWRCO

WEATHER ROUNDUP FOR COLORADO
NATIONAL WEATHER SERVICE DENVER/BOULDER CO
1200 PM MDT TUE MAY 31 2016

NOTE: "FAIR" INDICATES FEW OR NO CLOUDS BELOW 12000 FEET WITH NO
SIGNIFICANT WEATHER AND/OR OBSTRUCTIONS TO VISIBILITY.

COZ001>005-013-030-031-311900-
...NORTHWEST COLORADO...

CITY           SKY/WX    TMP DP  RH WIND       PRES   REMARKS
CRAIG          FAIR      64  39  39 VRB6      30.13F
HAYDEN         FAIR      63  36  36 W9        30.15S
MEEKER         FAIR      67  35  30 SW7       30.12F
MOUNT WERNER   NOT AVBL
STEAMBOAT SPGS FAIR      61  30  31 SW7       30.14F
WALDEN         NOT AVBL
$$

COZ006>008-011-311900-
...WEST CENTRAL VALLEYS...

CITY           SKY/WX    TMP DP  RH WIND       PRES   REMARKS
GRAND JUNCTION FAIR      74  34  23 MISG      30.01F
MONTROSE       FAIR      71  34  25 VRB7      30.06F
EAGLE          SUNNY     66  30  26 CALM      30.11F
RIFLE          FAIR      73  36  25 N5        30.05F
DELTA          FAIR      74  31  20 CALM      30.03F
NUCLA          FAIR      73  28  19 MISG      30.09F
$$

COZ017>023-064>068-311900-
...SOUTHWEST COLORADO...

CITY           SKY/WX    TMP DP  RH WIND       PRES   REMARKS
DURANGO        FAIR      74  19  12 SW9       30.08F
CORTEZ         FAIR      78  23  13 CALM      30.04F
PAGOSA SPRINGS FAIR      69  13  12 S12       30.14S
TELLURIDE      FAIR      62  19  18 W5        30.23S
WOLF CREEK PAS FAIR      46  18  31 SW8G24    30.40S
$$

COZ009-010-012-014-032>034-037-058>063-311900-
...CENTRAL COLORADO...

CITY           SKY/WX    TMP DP  RH WIND       PRES   REMARKS
ASPEN          FAIR      65  30  27 N14G20    30.14S
BUENA VISTA    FAIR      63  26  24 NE5       30.15F
COPPER MTN     NOT AVBL
BERTHOUD PASS  FAIR      36  28  75 W18G24    30.38S
COTTONWOOD PAS FAIR      61  27  27 E7        30.25F
GUNNISON       FAIR      63  28  27 SW5       30.18F
KREMMLING      FAIR      61  36  39 CALM      30.16F
LEADVILLE      PTSUNNY   55  19  24 W10G20    30.24S
MONARCH PASS   FAIR      45  19  36 W20G30    30.48S
SALIDA         FAIR      66  33  28 SE10G18   30.20F
SUNLIGHT       FAIR      50  32  50 CALM      30.36R
WILKERSON PASS FAIR      52  28  40 SW5       30.36F
$$

COZ069>075-311900-
...SAN LUIS VALLEY/SANGRE DE CRISTO MOUNTAINS...

CITY           SKY/WX    TMP DP  RH WIND       PRES   REMARKS
ALAMOSA        FAIR      66  32  28 S12       30.13F
LA VETA PASS   FAIR      48  39  71 NE7       30.29F
SAGUACHE       FAIR      64  28  25 CALM      30.15F
$$

COZ035-036-038>040-311900-
...NORTHERN COLORADO FRONT RANGE...

CITY           SKY/WX    TMP DP  RH WIND       PRES   REMARKS
DENVER INTL AP PTSUNNY   56  47  71 E9        30.11F
DMNS CITY PARK   N/A     62  45  53 NE9G18    30.10S
AURORA         PTSUNNY   59  46  63 VRB7      30.11F
FRONT RANGE AP CLOUDY    54  46  76 E10G22    30.13F
ERIE MUNI ARPT FAIR      61  45  56 CALM      30.10F
BOULDER MUN AP FAIR      61  41  48 CALM      30.09F
CENTENNIAL     FAIR      60  43  53 CALM      30.11F
BROOMFIELD     PTSUNNY   59  41  51 S6        30.11F
FORT COLLINS   FAIR      61  43  51 CALM      30.11F
LONGMONT       FAIR      64  43  46 SE5       30.11F
$$

COZ041-046-047-076>085-087-088-311900-
...PIKES PEAK/PALMER DIVIDE AND SOUTHERN FOOTHILLS...

CITY           SKY/WX    TMP DP  RH WIND       PRES   REMARKS
COLO. SPRINGS  FAIR      62  44  51 SE15G24   30.14F
A. F. ACADEMY  PTSUNNY   61  43  51 S16       30.13S
SCHRIEVER AFB  NOT AVBL
ELLICOTT       NOT AVBL
FALCON         PTSUNNY   60  42  53 SE12G20   30.18S
FORT CARSON    FAIR      64  46  51 VRB7G18   30.12F
LIMON          PTSUNNY   57  46  66 VRB5      30.14S
MONUMENT HILL  PTSUNNY   57  45  62 S14G21    30.16F
TRINIDAD       CLOUDY    61  43  51 CALM      30.13F
$$

COZ042>045-048>051-090-091-311900-
...NORTHEAST COLORADO...

CITY           SKY/WX    TMP DP  RH WIND       PRES   REMARKS
GREELEY ARPT   FAIR      61  45  55 S6        30.12F
AKRON          FAIR      61  42  49 E6        30.11F
BURLINGTON     FAIR      66  45  46 E12       30.10F
WRAY           NOT AVBL
STERLING       PTSUNNY   59  45  58 NE6       30.11S
HOLYOKE        FAIR      64  45  48 NE3       30.11F
FORT MORGAN    CLOUDY    60  42  53 CALM      30.12F
$$

COZ086-089-092>099-311900-
...SOUTHEAST COLORADO...

CITY           SKY/WX    TMP DP  RH WIND       PRES   REMARKS
PUEBLO         FAIR      66  47  50 SE9       30.10F
LA JUNTA       CLOUDY    69  49  48 NE12      30.08F
LAMAR          PTSUNNY   70  52  52 NE9       30.05S
SPRINGFIELD      N/A     67  53  61 VRB6      30.06S
$$




USA.gov is the U.S. government's official web portal to all federal, state and local government web resources and services.